Showing default

CONNECTA IOT-1, 60472

Orbit data source: Space-Track

CONNECTA IOT-1, 60472 is a payload satellite owned by Plan-S (TR) in SSO that was launched on Fri, 16 Aug 2024 UTC via an FALCON 9 launch vehicle from the Air Force Western Test Range (AFWTR). Payload-class satellites include a variety of spacecraft equipped with specific instruments for various scientific and technological missions. These include communications satellites like Starlink; space stations such as the ISS; scientific satellites like the Hubble; Earth observation satellites from companies like Planet Labs, Umbra, and HawkEye 360; GPS; miniature CubeSats for education and research; and military/defense satellites.

Loading next visibility...
Identifier
60472, 2024-149E
Orbit
SSO
Country
Flag of UnknownUnknown / TURK
Related business
Manufacturer
Plan-S
Mission
Operational Commercial Communications
Bus & Motor
CUBESAT 6U, Unknown motor
Mass
10 kg wet, 10 kg dry
Launch date (UTC)
2024-08-16 (1 year ago)
Launch vehicle
FALCON 9
Launch site
Air Force Western Test Range (AFWTR)
Object type
Payload
Rocket body
Debris
Shape & HBR
Box, 2.2 m
Radar Cross Section
0.080 m², Medium (>0.1 m² and < 1m²)

Expand to show TLE details & history
Last TLE update: 5 hours ago

TLE from 5 hours ago
0 CONNECTA IOT-1
1 60472U 24149E   25312.18918936  .00008889  00000-0  38123-3 0  9990
2 60472  97.3992  27.1600 0001679  21.4214 338.7093 15.22964547 68162
Epoch: 2025-11-08T04:32Z
TLE epoch observation values (Epoch: 2025-11-08T04:32:25.960Z)
Latitude
-0.00001°
Longitude
-88.57054°
Altitude
498.923 km
Speed
7.616 km/s
True Right ascension
01h 48m 38s
True Declination
0° 00' 00"
Sunlit
Object was in full shadow at epoch
Visualization orbit readout
Latitude
Unknown
Longitude
Unknown
Altitude
Unknown
Speed
Unknown
Apparent Right ascension
Unknown
Apparent Declination
Unknown
Sunlit
N/A
Visualization observer readout
Local Sidereal Time
05:32:25
Azimuth
Unknown
Elevation
Unknown
Doppler factor
Unknown
Orbital elements
Apogee altitude
495.02 km
Perigee altitude
492.712 km
Semi-major axis
6,872.003 km
Eccentricity
0.00017
Inclination
97.3992°
RAAN
27.16°
Arg. of periapsis
21.4214°
True anomaly
338.70231°
Mean anomaly
338.7093°
Eccentric anomaly
338.70581°
Mean motion
3.80994 °/min
Orbital period
94.49 mins
BSTAR
0.00038123
Loading maneuver chart data...
Computing Atmospheric mass density...
Loading historical data...
Loading historical data...
Loading historical data...
Loading historical data...
Loading historical data...
Loading historical data...
Loading historical data...

Documentation

Showing up to 5 results
|